�ϑ��_��,����,�C��[��],�C�� �i�����,���x[%RH],���x �i�����,���n�C��[hPa],���n�C�� �i�����,�C�ʋC��[hPa],�C�ʋC�� �i�����,����[m/s],���� �i�����,����,���� �i�����,�ő�u�ԕ���[m/s],�ő�u�ԕ��� �i�����,�ő�u�ԕ���������,�ő�u�ԕ��������� �i�����,����[W/�u],���� �i�����,���J,���J �i�����,1���ԉJ��[mm/h],1���ԉJ�� �i�����,�ϐ��[cm],�ϐ�� �i�����,�~���[cm/h],�~��� �i�����,����[m],���� �i�����,���ʕω�,���ʕω� �i�����
�k�C���X�y�[�X�|�[�g(�����),2022/09/01 01:00:00,16.6,0,100,0,1003.8,0,1006.6,0,3.9,0,�k��,0,6.9,0,�k��,0,0,0,�Ȃ�,0,1.0,0,,,,,,,,
�k�C���X�y�[�X�|�[�g(�����),2022/09/01 02:00:00,16.7,0,100,0,1003.8,0,1006.6,0,2.0,0,�k�k��,0,6.7,0,�k��,0,0,0,�Ȃ�,0,0.0,0,,,,,,,,
�k�C���X�y�[�X�|�[�g(�����),2022/09/01 03:00:00,16.5,0,100,0,1004.1,0,1006.9,0,2.3,0,���k��,0,4.2,0,�k�k��,0,0,0,�Ȃ�,0,0.0,0,,,,,,,,
�k�C���X�y�[�X�|�[�g(�����),2022/09/01 04:00:00,16.7,0,100,0,1004.6,0,1007.4,0,2.2,0,�k��,0,3.2,0,�k�k��,0,0,0,�Ȃ�,0,0.0,0,,,,,,,,
�k�C���X�y�[�X�|�[�g(�����),2022/09/01 05:00:00,16.4,0,100,0,1005.2,0,1008.0,0,1.5,0,���쐼,0,3.2,0,�k�k��,0,0,0,�Ȃ�,0,0.0,0,,,,,,,,
�k�C���X�y�[�X�|�[�g(�����),2022/09/01 06:00:00,16.7,0,100,0,1006.1,0,1008.9,0,0.3,0,�쐼,0,2.4,0,���k��,0,39,0,�Ȃ�,0,0.0,0,,,,,,,,
�k�C���X�y�[�X�|�[�g(�����),2022/09/01 07:00:00,17.7,0,100,0,1006.4,0,1009.2,0,0.4,0,���k��,0,1.6,0,���쓌,0,106,0,�Ȃ�,0,0.0,0,,,,,,,,
�k�C���X�y�[�X�|�[�g(�����),2022/09/01 08:00:00,17.5,0,100,0,1006.7,0,1009.5,0,1.4,0,��,0,2.2,0,�쓌,0,152,0,�Ȃ�,0,0.0,0,,,,,,,,
�k�C���X�y�[�X�|�[�g(�����),2022/09/01 09:00:00,17.7,0,99,0,1007.1,0,1009.9,0,0.6,0,���k��,0,2.0,0,��쓌,0,132,0,�Ȃ�,0,0.0,0,,,,,,,,
�k�C���X�y�[�X�|�[�g(�����),2022/09/01 10:00:00,17.7,0,97,0,1007.2,0,1010.0,0,1.7,0,��,0,2.8,0,��,0,124,0,�Ȃ�,0,0.0,0,,,,,,,,
�k�C���X�y�[�X�|�[�g(�����),2022/09/01 11:00:00,17.3,0,97,0,1006.9,0,1009.7,0,2.3,0,���k��,0,4.0,0,���k��,0,237,0,����,0,0.0,0,,,,,,,,
�k�C���X�y�[�X�|�[�g(�����),2022/09/01 12:00:00,17.1,0,98,0,1007.3,0,1010.1,0,2.2,0,��,0,3.6,0,��,0,199,0,����,0,0.0,0,,,,,,,,
�k�C���X�y�[�X�|�[�g(�����),2022/09/01 13:00:00,17.4,0,100,0,1006.9,0,1009.7,0,0.9,0,���k��,0,3.2,0,���k��,0,213,0,�Ȃ�,0,0.5,0,,,,,,,,
�k�C���X�y�[�X�|�[�g(�����),2022/09/01 14:00:00,17.6,0,95,0,1007.0,0,1009.8,0,2.0,0,���쓌,0,2.9,0,���쓌,0,283,0,�Ȃ�,0,0.0,0,,,,,,,,
�k�C���X�y�[�X�|�[�g(�����),2022/09/01 15:00:00,17.5,0,95,0,1007.2,0,1010.0,0,2.4,0,��,0,3.4,0,���쓌,0,279,0,�Ȃ�,0,0.0,0,,,,,,,,
�k�C���X�y�[�X�|�[�g(�����),2022/09/01 16:00:00,17.5,0,95,0,1007.5,0,1010.3,0,2.6,0,��,0,3.7,0,��,0,217,0,�Ȃ�,0,0.0,0,,,,,,,,
�k�C���X�y�[�X�|�[�g(�����),2022/09/01 17:00:00,17.7,0,95,0,1007.6,0,1010.4,0,1.4,0,���k��,0,3.4,0,���쓌,0,166,0,�Ȃ�,0,0.0,0,,,,,,,,
�k�C���X�y�[�X�|�[�g(�����),2022/09/01 18:00:00,17.1,0,100,0,1007.9,0,1010.7,0,1.0,0,���쓌,0,2.4,0,��,0,51,0,�Ȃ�,0,0.0,0,,,,,,,,
�k�C���X�y�[�X�|�[�g(�����),2022/09/01 19:00:00,17.0,0,100,0,1008.4,0,1011.2,0,0.2,0,�k�k��,0,1.4,0,���쓌,0,0,0,�Ȃ�,0,0.0,0,,,,,,,,
�k�C���X�y�[�X�|�[�g(�����),2022/09/01 20:00:00,16.8,0,100,0,1009.1,0,1011.9,0,0.8,0,�k��,0,1.9,0,�k�k��,0,0,0,�Ȃ�,0,0.0,0,,,,,,,,
�k�C���X�y�[�X�|�[�g(�����),2022/09/01 21:00:00,16.8,0,100,0,1008.7,0,1011.5,0,1.5,0,�k��,0,2.1,0,�k��,0,0,0,�Ȃ�,0,0.0,0,,,,,,,,
�k�C���X�y�[�X�|�[�g(�����),2022/09/01 22:00:00,16.6,0,100,0,1009.2,0,1012.0,0,0.9,0,�k��,0,2.9,0,�k�k��,0,0,0,�Ȃ�,0,0.0,0,,,,,,,,
�k�C���X�y�[�X�|�[�g(�����),2022/09/01 23:00:00,16.4,0,100,0,1009.0,0,1011.8,0,1.1,0,�k��,0,1.9,0,�k�k��,0,0,0,�Ȃ�,0,0.0,0,,,,,,,,
�k�C���X�y�[�X�|�[�g(�����),2022/09/02 00:00:00,16.1,0,100,0,1009.1,0,1011.9,0,0.9,0,�k�k��,0,2.2,0,���k��,0,0,0,�Ȃ�,0,0.0,0,,,,,,,,
�k�C���X�y�[�X�|�[�g(�����),2022/09/02 01:00:00,16.3,0,100,0,1008.9,0,1011.7,0,0.5,0,�k,0,1.8,0,���k��,0,0,0,�Ȃ�,0,0.0,0,,,,,,,,
�k�C���X�y�[�X�|�[�g(�����),2022/09/02 02:00:00,16.3,0,100,0,1009.5,0,1012.3,0,0.7,0,���k��,0,2.0,0,�k��,0,0,0,�Ȃ�,0,0.0,0,,,,,,,,
�k�C���X�y�[�X�|�[�g(�����),2022/09/02 03:00:00,16.2,0,100,0,1009.8,0,1012.7,0,0.6,0,�k��,0,2.8,0,���k��,0,0,0,�Ȃ�,0,0.0,0,,,,,,,,
�k�C���X�y�[�X�|�[�g(�����),2022/09/02 04:00:00,16.3,0,100,0,1010.0,0,1012.8,0,1.5,0,�k��,0,2.3,0,���k��,0,0,0,�Ȃ�,0,0.0,0,,,,,,,,
�k�C���X�y�[�X�|�[�g(�����),2022/09/02 05:00:00,16.2,0,100,0,1010.6,0,1013.5,0,0.9,0,���쐼,0,3.1,0,�k��,0,0,0,�Ȃ�,0,0.0,0,,,,,,,,
�k�C���X�y�[�X�|�[�g(�����),2022/09/02 06:00:00,16.4,0,100,0,1011.1,0,1014.0,0,1.9,0,���k��,0,3.1,0,���k��,0,35,0,�Ȃ�,0,0.0,0,,,,,,,,
�k�C���X�y�[�X�|�[�g(�����),2022/09/02 07:00:00,18.1,0,100,0,1010.9,0,1013.7,0,2.1,0,��,0,3.4,0,���k��,0,167,0,�Ȃ�,0,0.0,0,,,,,,,,
�k�C���X�y�[�X�|�[�g(�����),2022/09/02 08:00:00,20.5,0,91,0,1011.4,0,1014.2,0,0.9,0,��,0,3.1,0,���쐼,0,338,0,�Ȃ�,0,0.0,0,,,,,,,,
�k�C���X�y�[�X�|�[�g(�����),2022/09/02 09:00:00,20.0,0,92,0,1011.5,0,1014.3,0,2.4,0,��,0,4.2,0,��,0,337,0,�Ȃ�,0,0.0,0,,,,,,,,
�k�C���X�y�[�X�|�[�g(�����),2022/09/02 10:00:00,20.8,0,86,0,1011.5,0,1014.3,0,1.6,0,��쓌,0,3.8,0,�쓌,0,444,0,�Ȃ�,0,0.0,0,,,,,,,,
�k�C���X�y�[�X�|�[�g(�����),2022/09/02 11:00:00,22.7,0,79,0,1011.0,0,1013.8,0,1.5,0,���쓌,0,2.7,0,��,0,618,0,�Ȃ�,0,0.0,0,,,,,,,,
�k�C���X�y�[�X�|�[�g(�����),2022/09/02 12:00:00,22.5,0,74,0,1010.7,0,1013.5,0,2.3,0,���쓌,0,3.7,0,��,0,780,0,�Ȃ�,0,0.0,0,,,,,,,,
�k�C���X�y�[�X�|�[�g(�����),2022/09/02 13:00:00,22.4,0,74,0,1010.6,0,1013.4,0,2.0,0,���쓌,0,4.1,0,��,0,514,0,�Ȃ�,0,0.0,0,,,,,,,,
�k�C���X�y�[�X�|�[�g(�����),2022/09/02 14:00:00,22.4,0,78,0,1010.7,0,1013.5,0,1.2,0,���k��,0,3.8,0,�쓌,0,392,0,�Ȃ�,0,0.0,0,,,,,,,,
�k�C���X�y�[�X�|�[�g(�����),2022/09/02 15:00:00,23.1,0,70,0,1011.2,0,1014.0,0,1.7,0,��쓌,0,3.2,0,��,0,364,0,�Ȃ�,0,0.0,0,,,,,,,,
�k�C���X�y�[�X�|�[�g(�����),2022/09/02 16:00:00,22.6,0,73,0,1011.6,0,1014.4,0,1.0,0,��쐼,0,3.0,0,��쓌,0,220,0,�Ȃ�,0,0.0,0,,,,,,,,
�k�C���X�y�[�X�|�[�g(�����),2022/09/02 17:00:00,21.7,0,87,0,1012.0,0,1014.8,0,1.4,0,�k�k��,0,2.7,0,�k�k��,0,84,0,�Ȃ�,0,0.0,0,,,,,,,,
�k�C���X�y�[�X�|�[�g(�����),2022/09/02 18:00:00,20.5,0,88,0,1012.6,0,1015.4,0,0.2,0,��쐼,0,1.7,0,���k��,0,23,0,�Ȃ�,0,0.0,0,,,,,,,,
�k�C���X�y�[�X�|�[�g(�����),2022/09/02 19:00:00,18.6,0,94,0,1013.4,0,1016.2,0,3.0,0,���k��,0,4.3,0,���k��,0,0,0,�Ȃ�,0,0.0,0,,,,,,,,
�k�C���X�y�[�X�|�[�g(�����),2022/09/02 20:00:00,16.5,0,91,0,1014.6,0,1017.5,0,0.8,0,�k��,0,4.6,0,�k��,0,0,0,�Ȃ�,0,0.0,0,,,,,,,,
�k�C���X�y�[�X�|�[�g(�����),2022/09/02 21:00:00,17.2,0,84,0,1015.1,0,1018.0,0,1.7,0,�k�k��,0,4.1,0,�k�k��,0,0,0,�Ȃ�,0,0.0,0,,,,,,,,
�k�C���X�y�[�X�|�[�g(�����),2022/09/02 22:00:00,18.0,0,88,0,1015.8,0,1018.6,0,1.2,0,���k��,0,3.3,0,�k�k��,0,0,0,�Ȃ�,0,0.0,0,,,,,,,,
�k�C���X�y�[�X�|�[�g(�����),2022/09/02 23:00:00,17.8,0,90,0,1016.5,0,1019.4,0,1.8,0,�k��,0,4.0,0,�k��,0,0,0,�Ȃ�,0,0.0,0,,,,,,,,
�k�C���X�y�[�X�|�[�g(�����),2022/09/03 00:00:00,18.3,0,87,0,1016.8,0,1019.6,0,1.7,0,�k��,0,3.5,0,�k��,0,0,0,�Ȃ�,0,0.0,0,,,,,,,,
�k�C���X�y�[�X�|�[�g(�����),2022/09/03 01:00:00,17.3,0,88,0,1016.6,0,1019.5,0,1.2,0,���k��,0,2.6,0,���k��,0,0,0,�Ȃ�,0,0.0,0,,,,,,,,
�k�C���X�y�[�X�|�[�g(�����),2022/09/03 02:00:00,16.6,0,89,0,1016.9,0,1019.8,0,1.5,0,���k��,0,2.1,0,���k��,0,0,0,�Ȃ�,0,0.0,0,,,,,,,,
�k�C���X�y�[�X�|�[�g(�����),2022/09/03 03:00:00,16.2,0,91,0,1016.8,0,1019.7,0,1.6,0,���k��,0,2.3,0,���k��,0,0,0,�Ȃ�,0,0.0,0,,,,,,,,
�k�C���X�y�[�X�|�[�g(�����),2022/09/03 04:00:00,16.5,0,91,0,1016.7,0,1019.6,0,1.2,0,���k��,0,2.3,0,���k��,0,0,0,�Ȃ�,0,0.0,0,,,,,,,,
�k�C���X�y�[�X�|�[�g(�����),2022/09/03 05:00:00,16.2,0,92,0,1016.9,0,1019.8,0,1.0,0,��,0,1.7,0,���k��,0,0,0,�Ȃ�,0,0.0,0,,,,,,,,
�k�C���X�y�[�X�|�[�g(�����),2022/09/03 06:00:00,16.7,0,92,0,1017.5,0,1020.4,0,1.4,0,��,0,2.2,0,���k��,0,32,0,�Ȃ�,0,0.0,0,,,,,,,,
�k�C���X�y�[�X�|�[�g(�����),2022/09/03 07:00:00,17.9,0,87,0,1017.7,0,1020.6,0,2.0,0,���k��,0,2.8,0,���k��,0,93,0,�Ȃ�,0,0.0,0,,,,,,,,
�k�C���X�y�[�X�|�[�g(�����),2022/09/03 08:00:00,19.2,0,80,0,1017.4,0,1020.2,0,1.9,0,�k�k��,0,3.9,0,�k�k��,0,194,0,�Ȃ�,0,0.0,0,,,,,,,,
�k�C���X�y�[�X�|�[�g(�����),2022/09/03 09:00:00,19.9,0,80,0,1017.7,0,1020.5,0,1.3,0,�k�k��,0,3.4,0,�k�k��,0,247,0,�Ȃ�,0,0.0,0,,,,,,,,
�k�C���X�y�[�X�|�[�g(�����),2022/09/03 10:00:00,19.9,0,74,0,1017.6,0,1020.4,0,2.6,0,�k��,0,4.9,0,��,0,415,0,�Ȃ�,0,0.0,0,,,,,,,,
�k�C���X�y�[�X�|�[�g(�����),2022/09/03 11:00:00,20.0,0,73,0,1017.6,0,1020.4,0,2.0,0,�k��,0,4.5,0,���k��,0,374,0,�Ȃ�,0,0.0,0,,,,,,,,
�k�C���X�y�[�X�|�[�g(�����),2022/09/03 12:00:00,19.5,0,70,0,1017.5,0,1020.3,0,3.8,0,��,0,5.5,0,��,0,378,0,�Ȃ�,0,0.0,0,,,,,,,,
�k�C���X�y�[�X�|�[�g(�����),2022/09/03 13:00:00,19.3,0,79,0,1017.0,0,1019.8,0,3.8,0,��,0,5.8,0,��,0,337,0,�Ȃ�,0,0.0,0,,,,,,,,
�k�C���X�y�[�X�|�[�g(�����),2022/09/03 14:00:00,18.9,0,82,0,1016.7,0,1019.5,0,3.1,0,��,0,5.6,0,��,0,298,0,�Ȃ�,0,0.0,0,,,,,,,,
�k�C���X�y�[�X�|�[�g(�����),2022/09/03 15:00:00,18.7,0,86,0,1016.4,0,1019.2,0,2.0,0,���k��,0,4.6,0,��,0,211,0,�Ȃ�,0,0.0,0,,,,,,,,
�k�C���X�y�[�X�|�[�g(�����),2022/09/03 16:00:00,18.5,0,90,0,1016.2,0,1019.0,0,1.1,0,���k��,0,3.1,0,��,0,102,0,�Ȃ�,0,0.0,0,,,,,,,,
�k�C���X�y�[�X�|�[�g(�����),2022/09/03 17:00:00,18.5,0,92,0,1016.8,0,1019.6,0,0.5,0,�k�k��,0,3.1,0,��,0,76,0,�Ȃ�,0,0.0,0,,,,,,,,
�k�C���X�y�[�X�|�[�g(�����),2022/09/03 18:00:00,18.2,0,94,0,1016.7,0,1019.5,0,0.5,0,�k��,0,1.3,0,�k�k��,0,20,0,�Ȃ�,0,0.0,0,,,,,,,,
�k�C���X�y�[�X�|�[�g(�����),2022/09/03 19:00:00,17.4,0,97,0,1017.1,0,1020.0,0,0.8,0,���k��,0,1.7,0,���k��,0,0,0,�Ȃ�,0,0.0,0,,,,,,,,
�k�C���X�y�[�X�|�[�g(�����),2022/09/03 20:00:00,17.0,0,100,0,1017.4,0,1020.3,0,0.7,0,���k��,0,1.8,0,�k�k��,0,0,0,�Ȃ�,0,0.0,0,,,,,,,,
�k�C���X�y�[�X�|�[�g(�����),2022/09/03 21:00:00,16.2,0,100,0,1017.7,0,1020.6,0,0.9,0,���k��,0,1.4,0,�k��,0,0,0,�Ȃ�,0,0.0,0,,,,,,,,
�k�C���X�y�[�X�|�[�g(�����),2022/09/03 22:00:00,15.9,0,100,0,1017.5,0,1020.4,0,0.7,0,�k��,0,1.9,0,���k��,0,0,0,�Ȃ�,0,0.0,0,,,,,,,,
�k�C���X�y�[�X�|�[�g(�����),2022/09/03 23:00:00,15.2,0,100,0,1017.2,0,1020.1,0,0.8,0,��,0,1.2,0,��,0,0,0,�Ȃ�,0,0.0,0,,,,,,,,
�k�C���X�y�[�X�|�[�g(�����),2022/09/04 00:00:00,15.1,0,100,0,1017.0,0,1019.9,0,1.3,0,���k��,0,1.5,0,���k��,0,0,0,����,0,0.0,0,,,,,,,,
�k�C���X�y�[�X�|�[�g(�����),2022/09/04 01:00:00,14.7,0,100,0,1016.7,0,1019.6,0,1.3,0,���쐼,0,1.7,0,���쐼,0,0,0,�Ȃ�,0,0.0,0,,,,,,,,
�k�C���X�y�[�X�|�[�g(�����),2022/09/04 02:00:00,14.6,0,100,0,1016.7,0,1019.6,0,1.2,0,���쐼,0,1.8,0,���쐼,0,0,0,�Ȃ�,0,0.0,0,,,,,,,,
�k�C���X�y�[�X�|�[�g(�����),2022/09/04 03:00:00,14.4,0,100,0,1017.0,0,1019.9,0,1.2,0,���쐼,0,1.8,0,���쐼,0,0,0,�Ȃ�,0,0.0,0,,,,,,,,
�k�C���X�y�[�X�|�[�g(�����),2022/09/04 04:00:00,15.2,0,100,0,1017.0,0,1019.9,0,1.9,0,���k��,0,3.3,0,���k��,0,0,0,�Ȃ�,0,0.0,0,,,,,,,,
�k�C���X�y�[�X�|�[�g(�����),2022/09/04 05:00:00,15.5,0,100,0,1017.4,0,1020.3,0,2.0,0,���k��,0,3.2,0,���k��,0,0,0,�Ȃ�,0,0.0,0,,,,,,,,
�k�C���X�y�[�X�|�[�g(�����),2022/09/04 06:00:00,16.0,0,100,0,1017.7,0,1020.6,0,2.2,0,�k��,0,3.7,0,�k��,0,18,0,�Ȃ�,0,0.0,0,,,,,,,,
�k�C���X�y�[�X�|�[�g(�����),2022/09/04 07:00:00,16.8,0,100,0,1017.7,0,1020.6,0,1.7,0,���k��,0,2.8,0,���k��,0,76,0,�Ȃ�,0,0.0,0,,,,,,,,
�k�C���X�y�[�X�|�[�g(�����),2022/09/04 08:00:00,18.7,0,97,0,1017.7,0,1020.5,0,1.2,0,�k��,0,2.3,0,���k��,0,220,0,�Ȃ�,0,0.0,0,,,,,,,,
�k�C���X�y�[�X�|�[�g(�����),2022/09/04 09:00:00,20.5,0,83,0,1017.7,0,1020.5,0,1.3,0,�k��,0,3.2,0,�k��,0,350,0,����,0,0.0,0,,,,,,,,
�k�C���X�y�[�X�|�[�g(�����),2022/09/04 10:00:00,20.1,0,83,0,1017.4,0,1020.2,0,3.1,0,��,0,4.2,0,��,0,459,0,�Ȃ�,0,0.0,0,,,,,,,,
�k�C���X�y�[�X�|�[�g(�����),2022/09/04 11:00:00,20.4,0,77,0,1017.3,0,1020.1,0,3.8,0,���쓌,0,5.9,0,��,0,865,0,�Ȃ�,0,0.0,0,,,,,,,,
�k�C���X�y�[�X�|�[�g(�����),2022/09/04 12:00:00,20.6,0,75,0,1016.8,0,1019.6,0,4.4,0,��,0,6.4,0,��,0,924,0,�Ȃ�,0,0.0,0,,,,,,,,
�k�C���X�y�[�X�|�[�g(�����),2022/09/04 13:00:00,20.2,0,77,0,1016.6,0,1019.4,0,4.3,0,��,0,6.6,0,��,0,893,0,�Ȃ�,0,0.0,0,,,,,,,,
�k�C���X�y�[�X�|�[�g(�����),2022/09/04 14:00:00,20.2,0,76,0,1016.4,0,1019.2,0,4.4,0,��,0,6.4,0,���k��,0,773,0,�Ȃ�,0,0.0,0,,,,,,,,
�k�C���X�y�[�X�|�[�g(�����),2022/09/04 15:00:00,19.3,0,82,0,1016.5,0,1019.3,0,2.7,0,��,0,5.9,0,��,0,392,0,�Ȃ�,0,0.0,0,,,,,,,,
�k�C���X�y�[�X�|�[�g(�����),2022/09/04 16:00:00,19.1,0,88,0,1016.8,0,1019.6,0,1.3,0,���쓌,0,4.1,0,���k��,0,199,0,�Ȃ�,0,0.0,0,,,,,,,,
�k�C���X�y�[�X�|�[�g(�����),2022/09/04 17:00:00,19.5,0,87,0,1016.9,0,1019.7,0,0.4,0,�k��,0,2.1,0,��,0,127,0,�Ȃ�,0,0.0,0,,,,,,,,
�k�C���X�y�[�X�|�[�g(�����),2022/09/04 18:00:00,18.8,0,93,0,1016.9,0,1019.7,0,0.6,0,�k��,0,1.2,0,���k��,0,20,0,�Ȃ�,0,0.0,0,,,,,,,,
�k�C���X�y�[�X�|�[�g(�����),2022/09/04 19:00:00,18.1,0,98,0,1017.5,0,1020.4,0,1.0,0,���k��,0,1.4,0,���k��,0,0,0,�Ȃ�,0,0.0,0,,,,,,,,
�k�C���X�y�[�X�|�[�g(�����),2022/09/04 20:00:00,17.2,0,100,0,1017.8,0,1020.7,0,0.4,0,�k��,0,1.5,0,�k�k��,0,0,0,�Ȃ�,0,0.0,0,,,,,,,,
�k�C���X�y�[�X�|�[�g(�����),2022/09/04 21:00:00,17.8,0,100,0,1017.8,0,1020.7,0,0.5,0,�k��,0,2.2,0,�k�k��,0,0,0,����,0,0.0,0,,,,,,,,
�k�C���X�y�[�X�|�[�g(�����),2022/09/04 22:00:00,17.4,0,100,0,1017.7,0,1020.6,0,0.6,0,��,0,1.5,0,�k�k��,0,0,0,����,0,0.0,0,,,,,,,,
�k�C���X�y�[�X�|�[�g(�����),2022/09/04 23:00:00,17.3,0,100,0,1017.6,0,1020.5,0,1.1,0,���k��,0,2.2,0,���k��,0,0,0,�Ȃ�,0,0.0,0,,,,,,,,
�k�C���X�y�[�X�|�[�g(�����),2022/09/05 00:00:00,17.2,0,100,0,1017.4,0,1020.3,0,1.4,0,�k�k��,0,1.9,0,�k�k��,0,0,0,�Ȃ�,0,0.0,0,,,,,,,,
�k�C���X�y�[�X�|�[�g(�����),2022/09/05 01:00:00,17.0,0,100,0,1017.4,0,1020.3,0,0.7,0,�k,0,2.4,0,�k�k��,0,0,0,�Ȃ�,0,0.0,0,,,,,,,,
�k�C���X�y�[�X�|�[�g(�����),2022/09/05 02:00:00,16.7,0,100,0,1017.0,0,1019.9,0,1.3,0,���쐼,0,1.8,0,�k��,0,0,0,�Ȃ�,0,0.0,0,,,,,,,,
�k�C���X�y�[�X�|�[�g(�����),2022/09/05 03:00:00,17.0,0,100,0,1016.9,0,1019.8,0,0.8,0,���쐼,0,1.9,0,��,0,0,0,�Ȃ�,0,0.0,0,,,,,,,,
�k�C���X�y�[�X�|�[�g(�����),2022/09/05 04:00:00,17.0,0,100,0,1016.8,0,1019.7,0,0.4,0,�k��,0,1.6,0,���k��,0,0,0,�Ȃ�,0,0.0,0,,,,,,,,
�k�C���X�y�[�X�|�[�g(�����),2022/09/05 05:00:00,16.9,0,100,0,1016.6,0,1019.5,0,0.4,0,��,0,1.2,0,��쐼,0,0,0,�Ȃ�,0,0.0,0,,,,,,,,
�k�C���X�y�[�X�|�[�g(�����),2022/09/05 06:00:00,17.0,0,100,0,1017.2,0,1020.1,0,1.9,0,���k��,0,3.2,0,�k��,0,25,0,�Ȃ�,0,0.0,0,,,,,,,,
�k�C���X�y�[�X�|�[�g(�����),2022/09/05 07:00:00,17.1,0,100,0,1017.1,0,1020.0,0,2.7,0,��,0,3.6,0,��,0,79,0,�Ȃ�,0,0.0,0,,,,,,,,
�k�C���X�y�[�X�|�[�g(�����),2022/09/05 08:00:00,17.1,0,100,0,1017.2,0,1020.1,0,3.2,0,���k��,0,4.9,0,��,0,152,0,�Ȃ�,0,0.0,0,,,,,,,,
�k�C���X�y�[�X�|�[�g(�����),2022/09/05 09:00:00,17.7,0,100,0,1017.7,0,1020.6,0,2.0,0,�k��,0,4.8,0,��,0,239,0,�Ȃ�,0,0.0,0,,,,,,,,
�k�C���X�y�[�X�|�[�g(�����),2022/09/05 10:00:00,17.5,0,100,0,1017.5,0,1020.4,0,4.3,0,��,0,6.3,0,��,0,422,0,�Ȃ�,0,0.0,0,,,,,,,,
�k�C���X�y�[�X�|�[�g(�����),2022/09/05 11:00:00,17.4,0,100,0,1016.4,0,1019.3,0,4.4,0,��,0,6.4,0,��,0,294,0,�Ȃ�,0,0.0,0,,,,,,,,
�k�C���X�y�[�X�|�[�g(�����),2022/09/05 12:00:00,17.7,0,100,0,1016.3,0,1019.2,0,3.1,0,���k��,0,6.2,0,��,0,223,0,�Ȃ�,0,0.0,0,,,,,,,,
�k�C���X�y�[�X�|�[�g(�����),2022/09/05 13:00:00,17.7,0,100,0,1015.5,0,1018.3,0,2.7,0,��,0,6.2,0,��,0,261,0,�Ȃ�,0,0.0,0,,,,,,,,
�k�C���X�y�[�X�|�[�g(�����),2022/09/05 14:00:00,18.1,0,100,0,1015.3,0,1018.1,0,3.1,0,��,0,5.2,0,���k��,0,292,0,�Ȃ�,0,0.0,0,,,,,,,,
�k�C���X�y�[�X�|�[�g(�����),2022/09/05 15:00:00,18.9,0,100,0,1015.1,0,1017.9,0,2.8,0,��,0,4.6,0,���k��,0,261,0,�Ȃ�,0,0.0,0,,,,,,,,
�k�C���X�y�[�X�|�[�g(�����),2022/09/05 16:00:00,19.9,0,98,0,1014.9,0,1017.7,0,2.3,0,��쓌,0,4.2,0,���쓌,0,209,0,�Ȃ�,0,0.0,0,,,,,,,,
�k�C���X�y�[�X�|�[�g(�����),2022/09/05 17:00:00,19.8,0,96,0,1014.9,0,1017.7,0,2.9,0,��,0,6.7,0,��,0,88,0,�Ȃ�,0,0.0,0,,,,,,,,
�k�C���X�y�[�X�|�[�g(�����),2022/09/05 18:00:00,19.3,0,97,0,1014.6,0,1017.4,0,3.2,0,��,0,6.2,0,��쓌,0,15,0,�Ȃ�,0,0.0,0,,,,,,,,
�k�C���X�y�[�X�|�[�g(�����),2022/09/05 19:00:00,19.3,0,97,0,1015.5,0,1018.3,0,2.4,0,��,0,6.4,0,��,0,0,0,�Ȃ�,0,0.0,0,,,,,,,,
�k�C���X�y�[�X�|�[�g(�����),2022/09/05 20:00:00,19.4,0,96,0,1015.5,0,1018.3,0,2.8,0,��,0,5.5,0,��,0,0,0,�Ȃ�,0,0.0,0,,,,,,,,
�k�C���X�y�[�X�|�[�g(�����),2022/09/05 21:00:00,19.3,0,97,0,1015.5,0,1018.3,0,2.5,0,��,0,5.2,0,��,0,0,0,�Ȃ�,0,0.0,0,,,,,,,,
�k�C���X�y�[�X�|�[�g(�����),2022/09/05 22:00:00,19.4,0,97,0,1015.5,0,1018.3,0,2.8,0,��쓌,0,5.1,0,��쓌,0,0,0,�Ȃ�,0,0.0,0,,,,,,,,
�k�C���X�y�[�X�|�[�g(�����),2022/09/05 23:00:00,19.4,0,98,0,1015.2,0,1018.0,0,3.0,0,��,0,5.5,0,��,0,0,0,�Ȃ�,0,0.0,0,,,,,,,,
�k�C���X�y�[�X�|�[�g(�����),2022/09/06 00:00:00,19.1,0,99,0,1014.8,0,1017.6,0,1.6,0,��,0,5.1,0,��,0,0,0,�Ȃ�,0,0.0,0,,,,,,,,
�k�C���X�y�[�X�|�[�g(�����),2022/09/06 01:00:00,19.1,0,100,0,1014.0,0,1016.8,0,4.0,0,��,0,7.5,0,��,0,0,0,�Ȃ�,0,0.0,0,,,,,,,,
�k�C���X�y�[�X�|�[�g(�����),2022/09/06 02:00:00,18.9,0,100,0,1013.7,0,1016.5,0,2.4,0,��,0,5.8,0,��쐼,0,0,0,�Ȃ�,0,0.0,0,,,,,,,,
�k�C���X�y�[�X�|�[�g(�����),2022/09/06 03:00:00,19.1,0,100,0,1013.7,0,1016.5,0,1.7,0,��,0,4.7,0,��쓌,0,0,0,�Ȃ�,0,0.0,0,,,,,,,,
�k�C���X�y�[�X�|�[�g(�����),2022/09/06 04:00:00,19.3,0,100,0,1013.5,0,1016.3,0,2.1,0,�쓌,0,5.0,0,��쓌,0,0,0,�Ȃ�,0,0.0,0,,,,,,,,
�k�C���X�y�[�X�|�[�g(�����),2022/09/06 05:00:00,19.4,0,100,0,1013.5,0,1016.3,0,2.4,0,��,0,5.2,0,��,0,0,0,�Ȃ�,0,0.0,0,,,,,,,,
�k�C���X�y�[�X�|�[�g(�����),2022/09/06 06:00:00,19.6,0,100,0,1013.8,0,1016.6,0,3.2,0,��쐼,0,6.3,0,��,0,0,0,�Ȃ�,0,0.0,0,,,,,,,,
�k�C���X�y�[�X�|�[�g(�����),2022/09/06 07:00:00,19.4,0,100,0,1013.9,0,1016.7,0,2.4,0,��쓌,0,4.9,0,��쐼,0,22,0,����,0,0.0,0,,,,,,,,
�k�C���X�y�[�X�|�[�g(�����),2022/09/06 08:00:00,19.4,0,100,0,1013.6,0,1016.4,0,3.0,0,��쓌,0,5.2,0,��쓌,0,57,0,����,0,0.0,0,,,,,,,,
�k�C���X�y�[�X�|�[�g(�����),2022/09/06 09:00:00,19.2,0,100,0,1013.8,0,1016.6,0,2.0,0,��쓌,0,4.4,0,��,0,60,0,����,0,0.0,0,,,,,,,,
�k�C���X�y�[�X�|�[�g(�����),2022/09/06 10:00:00,19.6,0,100,0,1013.5,0,1016.3,0,2.3,0,��쓌,0,4.2,0,��,0,98,0,����,0,0.0,0,,,,,,,,
�k�C���X�y�[�X�|�[�g(�����),2022/09/06 11:00:00,20.1,0,100,0,1012.9,0,1015.7,0,3.0,0,��쓌,0,5.3,0,��,0,244,0,�Ȃ�,0,0.0,0,,,,,,,,
�k�C���X�y�[�X�|�[�g(�����),2022/09/06 12:00:00,20.0,0,100,0,1012.4,0,1015.2,0,2.6,0,��쓌,0,4.7,0,�쓌,0,206,0,�Ȃ�,0,0.0,0,,,,,,,,
�k�C���X�y�[�X�|�[�g(�����),2022/09/06 13:00:00,20.6,0,98,0,1011.7,0,1014.5,0,3.1,0,�쓌,0,5.1,0,�쓌,0,182,0,�Ȃ�,0,0.0,0,,,,,,,,
�k�C���X�y�[�X�|�[�g(�����),2022/09/06 14:00:00,20.6,0,96,0,1011.1,0,1013.9,0,2.7,0,�쓌,0,5.6,0,�쓌,0,237,0,�Ȃ�,0,0.0,0,,,,,,,,
�k�C���X�y�[�X�|�[�g(�����),2022/09/06 15:00:00,20.7,0,95,0,1010.5,0,1013.3,0,2.9,0,�쓌,0,5.6,0,�쓌,0,176,0,�Ȃ�,0,0.0,0,,,,,,,,
�k�C���X�y�[�X�|�[�g(�����),2022/09/06 16:00:00,20.4,0,97,0,1010.5,0,1013.3,0,1.9,0,��,0,5.0,0,�쓌,0,71,0,�Ȃ�,0,0.0,0,,,,,,,,
�k�C���X�y�[�X�|�[�g(�����),2022/09/06 17:00:00,19.9,0,98,0,1010.2,0,1013.0,0,1.7,0,���쓌,0,3.2,0,��,0,34,0,�Ȃ�,0,0.0,0,,,,,,,,
�k�C���X�y�[�X�|�[�g(�����),2022/09/06 18:00:00,20.0,0,98,0,1009.6,0,1012.4,0,3.0,0,��쓌,0,5.7,0,�쓌,0,1,0,�Ȃ�,0,0.0,0,,,,,,,,
�k�C���X�y�[�X�|�[�g(�����),2022/09/06 19:00:00,20.1,0,99,0,1010.1,0,1012.9,0,2.8,0,�쓌,0,6.2,0,��쓌,0,0,0,�Ȃ�,0,0.0,0,,,,,,,,
�k�C���X�y�[�X�|�[�g(�����),2022/09/06 20:00:00,19.8,0,99,0,1010.3,0,1013.1,0,2.0,0,�쓌,0,4.7,0,�쓌,0,0,0,�Ȃ�,0,0.0,0,,,,,,,,
�k�C���X�y�[�X�|�[�g(�����),2022/09/06 21:00:00,19.7,0,100,0,1009.5,0,1012.3,0,1.6,0,��쓌,0,8.2,0,��쓌,0,0,0,�Ȃ�,0,0.0,0,,,,,,,,
�k�C���X�y�[�X�|�[�g(�����),2022/09/06 22:00:00,20.2,0,100,0,1008.6,0,1011.4,0,3.9,0,��,0,6.7,0,��,0,0,0,�Ȃ�,0,0.0,0,,,,,,,,
�k�C���X�y�[�X�|�[�g(�����),2022/09/06 23:00:00,20.2,0,100,0,1008.2,0,1011.0,0,4.1,0,��,0,8.2,0,��쓌,0,0,0,�Ȃ�,0,0.0,0,,,,,,,,
�k�C���X�y�[�X�|�[�g(�����),2022/09/07 00:00:00,20.2,0,98,0,1006.9,0,1009.7,0,5.6,0,�쓌,0,10.2,0,���쓌,0,0,0,�Ȃ�,0,0.0,0,,,,,,,,
�k�C���X�y�[�X�|�[�g(�����),2022/09/07 01:00:00,19.5,0,100,0,1006.0,0,1008.8,0,4.5,0,��쓌,0,8.4,0,��쓌,0,0,0,�Ȃ�,0,0.0,0,,,,,,,,
�k�C���X�y�[�X�|�[�g(�����),2022/09/07 02:00:00,19.8,0,100,0,1004.7,0,1007.5,0,5.6,0,��쓌,0,9.1,0,��쓌,0,0,0,�Ȃ�,0,0.0,0,,,,,,,,
�k�C���X�y�[�X�|�[�g(�����),2022/09/07 03:00:00,20.1,0,100,0,1004.8,0,1007.6,0,6.0,0,��쓌,0,11.4,0,��,0,0,0,�Ȃ�,0,0.0,0,,,,,,,,
�k�C���X�y�[�X�|�[�g(�����),2022/09/07 04:00:00,20.4,0,100,0,1005.5,0,1008.3,0,7.2,0,��,0,11.7,0,��쓌,0,0,0,�Ȃ�,0,0.0,0,,,,,,,,
�k�C���X�y�[�X�|�[�g(�����),2022/09/07 05:00:00,19.5,0,100,0,1006.2,0,1009.0,0,3.9,0,��쓌,0,12.2,0,��,0,0,0,�Ȃ�,0,0.0,0,,,,,,,,
�k�C���X�y�[�X�|�[�g(�����),2022/09/07 06:00:00,21.6,0,89,0,1006.8,0,1009.6,0,3.8,0,��,0,6.6,0,��쐼,0,24,0,�Ȃ�,0,0.0,0,,,,,,,,
�k�C���X�y�[�X�|�[�g(�����),2022/09/07 07:00:00,24.6,0,72,0,1007.1,0,1009.9,0,2.8,0,��쐼,0,6.5,0,��,0,130,0,�Ȃ�,0,0.0,0,,,,,,,,
�k�C���X�y�[�X�|�[�g(�����),2022/09/07 08:00:00,25.8,0,59,0,1008.2,0,1010.9,0,2.9,0,��쐼,0,7.4,0,�쐼,0,306,0,�Ȃ�,0,0.0,0,,,,,,,,
�k�C���X�y�[�X�|�[�g(�����),2022/09/07 09:00:00,23.7,0,65,0,1008.7,0,1011.5,0,3.6,0,�쓌,0,6.3,0,��쓌,0,506,0,�Ȃ�,0,0.0,0,,,,,,,,
�k�C���X�y�[�X�|�[�g(�����),2022/09/07 10:00:00,24.2,0,62,0,1008.6,0,1011.4,0,4.8,0,��,0,7.7,0,��,0,708,0,�Ȃ�,0,0.0,0,,,,,,,,
�k�C���X�y�[�X�|�[�g(�����),2022/09/07 11:00:00,26.4,0,58,0,1008.6,0,1011.3,0,2.4,0,�쓌,0,7.3,0,��,0,852,0,�Ȃ�,0,0.0,0,,,,,,,,
�k�C���X�y�[�X�|�[�g(�����),2022/09/07 12:00:00,30.0,0,33,0,1008.4,0,1011.1,0,3.9,0,��,0,9.1,0,��,0,924,0,�Ȃ�,0,0.0,0,,,,,,,,
�k�C���X�y�[�X�|�[�g(�����),2022/09/07 13:00:00,30.3,0,29,0,1008.4,0,1011.1,0,3.7,0,���쐼,0,8.1,0,��,0,884,0,�Ȃ�,0,0.0,0,,,,,,,,
�k�C���X�y�[�X�|�[�g(�����),2022/09/07 14:00:00,26.5,0,45,0,1008.6,0,1011.3,0,3.4,0,��쐼,0,7.6,0,�쐼,0,745,0,�Ȃ�,0,0.0,0,,,,,,,,
�k�C���X�y�[�X�|�[�g(�����),2022/09/07 15:00:00,26.8,0,40,0,1008.8,0,1011.5,0,3.2,0,��,0,7.0,0,��,0,580,0,�Ȃ�,0,0.0,0,,,,,,,,
�k�C���X�y�[�X�|�[�g(�����),2022/09/07 16:00:00,26.8,0,39,0,1009.0,0,1011.7,0,2.4,0,��,0,4.6,0,��쐼,0,386,0,�Ȃ�,0,0.0,0,,,,,,,,
�k�C���X�y�[�X�|�[�g(�����),2022/09/07 17:00:00,27.1,0,40,0,1009.5,0,1012.2,0,1.5,0,�쐼,0,3.5,0,���쐼,0,196,0,�Ȃ�,0,0.0,0,,,,,,,,
�k�C���X�y�[�X�|�[�g(�����),2022/09/07 18:00:00,23.2,0,44,0,1009.9,0,1012.7,0,2.2,0,�쐼,0,4.2,0,�쐼,0,37,0,�Ȃ�,0,0.0,0,,,,,,,,
�k�C���X�y�[�X�|�[�g(�����),2022/09/07 19:00:00,21.8,0,50,0,1010.8,0,1013.6,0,2.4,0,���k��,0,3.9,0,��,0,0,0,�Ȃ�,0,0.0,0,,,,,,,,
�k�C���X�y�[�X�|�[�g(�����),2022/09/07 20:00:00,17.8,0,72,0,1011.5,0,1014.3,0,2.1,0,��,0,3.3,0,��쐼,0,0,0,�Ȃ�,0,0.0,0,,,,,,,,
�k�C���X�y�[�X�|�[�g(�����),2022/09/07 21:00:00,15.8,0,80,0,1011.9,0,1014.8,0,1.5,0,��,0,2.9,0,���쐼,0,0,0,�Ȃ�,0,0.0,0,,,,,,,,
�k�C���X�y�[�X�|�[�g(�����),2022/09/07 22:00:00,15.4,0,86,0,1012.1,0,1015.0,0,1.0,0,���쐼,0,3.6,0,���쓌,0,0,0,�Ȃ�,0,0.0,0,,,,,,,,
�k�C���X�y�[�X�|�[�g(�����),2022/09/07 23:00:00,15.2,0,86,0,1012.0,0,1014.9,0,1.7,0,���k��,0,5.3,0,���쐼,0,0,0,�Ȃ�,0,0.0,0,,,,,,,,
�k�C���X�y�[�X�|�[�g(�����),2022/09/08 00:00:00,14.1,0,91,0,1012.0,0,1014.9,0,1.5,0,���k��,0,4.2,0,���쐼,0,0,0,�Ȃ�,0,0.0,0,,,,,,,,
�k�C���X�y�[�X�|�[�g(�����),2022/09/08 01:00:00,13.1,0,93,0,1012.2,0,1015.1,0,1.4,0,�k�k��,0,3.9,0,�쐼,0,0,0,�Ȃ�,0,0.0,0,,,,,,,,
�k�C���X�y�[�X�|�[�g(�����),2022/09/08 02:00:00,12.8,0,95,0,1012.3,0,1015.2,0,1.0,0,��,0,2.8,0,���쐼,0,0,0,�Ȃ�,0,0.0,0,,,,,,,,
�k�C���X�y�[�X�|�[�g(�����),2022/09/08 03:00:00,13.2,0,95,0,1012.6,0,1015.5,0,0.9,0,�k��,0,3.0,0,���쐼,0,0,0,�Ȃ�,0,0.0,0,,,,,,,,
�k�C���X�y�[�X�|�[�g(�����),2022/09/08 04:00:00,13.2,0,97,0,1012.9,0,1015.8,0,1.1,0,��,0,2.4,0,���쐼,0,0,0,�Ȃ�,0,0.0,0,,,,,,,,
�k�C���X�y�[�X�|�[�g(�����),2022/09/08 05:00:00,12.1,0,98,0,1013.3,0,1016.2,0,1.5,0,��,0,2.4,0,�쐼,0,0,0,�Ȃ�,0,0.0,0,,,,,,,,
�k�C���X�y�[�X�|�[�g(�����),2022/09/08 06:00:00,14.7,0,92,0,1013.9,0,1016.8,0,1.3,0,���k��,0,2.5,0,���쐼,0,28,0,�Ȃ�,0,0.0,0,,,,,,,,
�k�C���X�y�[�X�|�[�g(�����),2022/09/08 07:00:00,17.8,0,81,0,1014.6,0,1017.4,0,1.5,0,���k��,0,2.5,0,���k��,0,163,0,�Ȃ�,0,0.0,0,,,,,,,,
�k�C���X�y�[�X�|�[�g(�����),2022/09/08 08:00:00,21.5,0,66,0,1014.5,0,1017.3,0,0.9,0,���k��,0,2.8,0,���k��,0,307,0,�Ȃ�,0,0.0,0,,,,,,,,
�k�C���X�y�[�X�|�[�g(�����),2022/09/08 09:00:00,21.6,0,66,0,1014.9,0,1017.7,0,1.6,0,���쓌,0,3.0,0,���쓌,0,443,0,�Ȃ�,0,0.0,0,,,,,,,,
�k�C���X�y�[�X�|�[�g(�����),2022/09/08 10:00:00,21.8,0,60,0,1014.8,0,1017.6,0,2.9,0,�쓌,0,3.6,0,�쓌,0,644,0,�Ȃ�,0,0.0,0,,,,,,,,
�k�C���X�y�[�X�|�[�g(�����),2022/09/08 11:00:00,21.9,0,62,0,1014.5,0,1017.3,0,3.2,0,��쓌,0,4.9,0,�쓌,0,846,0,�Ȃ�,0,0.0,0,,,,,,,,
�k�C���X�y�[�X�|�[�g(�����),2022/09/08 12:00:00,22.2,0,66,0,1014.1,0,1016.9,0,3.0,0,��,0,5.4,0,��쓌,0,901,0,�Ȃ�,0,0.0,0,,,,,,,,
�k�C���X�y�[�X�|�[�g(�����),2022/09/08 13:00:00,22.9,0,57,0,1013.5,0,1016.3,0,3.1,0,��,0,5.5,0,��,0,815,0,�Ȃ�,0,0.0,0,,,,,,,,